Simultaneous Nadir Overpasses (SNOs) Predictions

Prediction of SNOs between NOAA-15 and METOP-C Satellite Orbit:

Table of predicted SNOs for the next 14.0 days since TLE Epoch: 10/25/2019
Index Date (NOAA-15) Time (NOAA-15) Lat,Lon (NOAA-15) SZA (NOAA-15 ) Date (METOP-C) Time (METOP-C) Lat,Lon (METOP-C) SZA (METOP-C ) Distance(km) Time Diff (sec)
1 10/30/2019 13:29:49 -80.86,-168.41 83.49 10/30/2019 13:28:44 -80.87,-168.43 83.51 1.02 65
2 10/30/2019 14:20:24 80.87, -1.17 96.52 10/30/2019 14:19:24 80.87, -1.07 96.51 1.87 60
3 10/30/2019 15:10:52 -80.87, 166.20 83.48 10/30/2019 15:10:06 -80.86, 166.08 83.51 2.28 46
4 10/30/2019 16:01:27 80.87, -26.56 96.53 10/30/2019 16:00:46 80.86, -26.56 96.51 1.14 41
5 10/30/2019 16:51:55 -80.87, 140.81 83.46 10/30/2019 16:51:27 -80.87, 140.94 83.46 2.27 28
6 10/30/2019 17:42:29 80.86, -51.59 96.57 10/30/2019 17:42:07 80.87, -51.70 96.56 2.38 22
7 10/30/2019 18:32:58 -80.88, 115.42 83.45 10/30/2019 18:32:49 -80.86, 115.44 83.46 1.90 9
8 10/30/2019 19:23:32 80.87, -76.98 96.58 10/30/2019 19:23:28 80.88, -76.84 96.61 3.05 4
9 10/30/2019 20:14:00 -80.87, 90.38 83.41 10/30/2019 20:14:10 -80.87, 90.30 83.41 1.56 10
10 10/30/2019 21:04:35 80.87,-102.37 96.60 10/30/2019 21:04:50 80.88,-102.33 96.61 0.62 15
11 10/30/2019 21:55:03 -80.88, 64.99 83.39 10/30/2019 21:55:31 -80.89, 65.16 83.36 3.18 28
12 10/30/2019 22:45:38 80.88,-127.75 96.62 10/30/2019 22:46:12 80.87,-127.83 96.61 1.91 34
13 10/30/2019 23:36:06 -80.88, 39.60 83.38 10/30/2019 23:36:53 -80.88, 39.67 83.36 1.31 47
14 10/31/2019 00:26:41 80.89,-153.14 96.63 10/31/2019 00:27:33 80.88,-152.96 96.66 3.30 52
15 10/31/2019 01:17:08 -80.87, 14.57 83.34 10/31/2019 01:18:14 -80.89, 14.53 83.31 1.97 66




NCC Satellite Simultaneous Nadir Overpasses (SNOs) Prediction Service
